Rancho El Gorguz, Mexico

2:03 AM MST on February 26, 2017 (GMT -0700)
Gen Ignacio Pesqueira Garcia

Weather History for MMHO - September, 2013

Change the Weather History Date:

Thursday, September 19, 2013

  Actual Average Record
Temperature  
Mean Temperature 92 °F -  
Max Temperature 104 °F 93 °F 109 °F (1997)
Min Temperature 79 °F 68 °F 69 °F (2000)
Cooling Degree Days 26    
Growing Degree Days 42 (Base 50)    
Moisture  
Dew Point 70 °F    
Average Humidity 53    
Maximum Humidity 89    
Minimum Humidity 21    
Precipitation  
Precipitation 0.00 in - - ()
Sea Level Pressure  
Sea Level Pressure 29.69 in    
Wind  
Wind Speed 3 mph ()    
Max Wind Speed 13 mph    
Max Gust Speed -    
Visibility 10.2 miles    
Events      
Averages and records for this station are not official NWS values.
T = Trace of Precipitation, MM = Missing Value Source: Averaged Metar Reports

Daily Weather History Graph

Daily Weather History Graph

Search for Another Location

Airport or City:

Trip Planner

Search our weather history database for the weather conditions in past years. The results will help you decide how hot, cold, wet, or windy it might be!

Date:

Astronomy

Sep. 19, 2013 Rise Set
Actual Time 7:11 AM MDT 7:23 PM MDT
Civil Twilight 6:47 AM MDT 7:47 PM MDT
Nautical Twilight 6:19 AM MDT 8:15 PM MDT
Astronomical Twilight 5:51 AM MDT 8:43 PM MDT
Moon 7:31 PM MDT (9/19) 7:19 AM MDT (9/19)
Length of Visible Light 13h 00m
Length of Day
12h 12m
Full, 100% of the Moon is Illuminated
Sep 19
Full
Sep 26
Last Quarter
Oct 4
New
Oct 11
First Quarter
Oct 18
Full

Hourly Weather History & Observations

Time (MDT) Temp. Heat Index Dew Point Humidity Pressure Visibility Wind Dir Wind Speed Gust Speed Precip Events Conditions
12:41 AM 84.2 °F 96.1 °F 78.8 °F 84% 29.75 in 10.0 mi SSW 6.9 mph - N/A   Mostly Cloudy
1:42 AM 82.4 °F 92.4 °F 78.8 °F 89% 29.76 in 10.0 mi Calm Calm - N/A   Mostly Cloudy
2:40 AM 84 °F - 76 °F 70% 29.70 in 5 mi SSE 6.7 mph - -   Partly Cloudy
2:41 AM 84.2 °F 96.1 °F 78.8 °F 84% 29.71 in 10.0 mi Calm Calm - N/A   Mostly Cloudy
3:40 AM 84.2 °F 96.1 °F 78.8 °F 84% 29.73 in 10.0 mi Calm Calm - N/A   Scattered Clouds
4:41 AM 84.2 °F 90.9 °F 73.4 °F 70% 29.72 in 10.0 mi Calm Calm - N/A   Scattered Clouds
5:47 AM 80.6 °F 85.4 °F 73.4 °F 79% 29.61 in 10.0 mi Calm Calm - N/A   Scattered Clouds
6:44 AM 84.2 °F 92.3 °F 75.2 °F 74% 29.73 in 10.0 mi Calm Calm - N/A   Scattered Clouds
7:41 AM 84.2 °F 92.3 °F 75.2 °F 74% 29.75 in 10.0 mi Calm Calm - N/A   Partly Cloudy
8:40 AM 81 °F - 73 °F 70% 29.72 in 7 mi East 2.2 mph - -  
8:53 AM 86.0 °F 95.1 °F 75.2 °F 70% 29.67 in 10.0 mi Calm Calm - N/A   Clear
9:57 AM 87.8 °F 97.6 °F 75.2 °F 66% 29.78 in 10.0 mi Calm Calm - N/A   Clear
10:47 AM 91.4 °F 100.1 °F 73.4 °F 55% 29.76 in 10.0 mi Calm Calm - N/A   Clear
11:40 AM 93 °F - 74 °F 46% 29.72 in 7 mi East 2.2 mph - -   Scattered Clouds
11:53 AM 93.2 °F 102.4 °F 73.4 °F 52% 29.69 in 10.0 mi Calm Calm - N/A   Partly Cloudy
12:46 PM 95.0 °F 103.2 °F 71.6 °F 47% 29.73 in 10.0 mi Calm Calm - N/A   Clear
2:02 PM 98.6 °F 104.1 °F 68.0 °F 37% 29.70 in 10.0 mi West 5.8 mph - N/A   Clear
2:41 PM 100.4 °F 102.4 °F 62.6 °F 29% 29.67 in 10.0 mi WSW 6.9 mph - N/A   Clear
3:47 PM 102.2 °F 105.5 °F 64.4 °F 29% 29.66 in 15.0 mi West 8.1 mph - N/A   Clear
4:46 PM 102.2 °F 103.6 °F 60.8 °F 26% 29.64 in 15.0 mi WSW 8.1 mph - N/A   Clear
5:42 PM 103 °F - 66 °F 21% 29.58 in 7 mi SW 2.2 mph - -   Scattered Clouds
5:42 PM 102.2 °F 103.6 °F 60.8 °F 26% 29.60 in 15.0 mi WSW 8.1 mph - N/A   Clear
6:43 PM 96.8 °F 99.0 °F 64.4 °F 34% 29.64 in 15.0 mi SW 12.7 mph - N/A   Clear
7:42 PM 93.2 °F 94.9 °F 64.4 °F 38% 29.66 in 15.0 mi SW 9.2 mph - N/A   Clear
8:40 PM 92 °F - 68 °F 35% 29.63 in 5 mi WSW 8.9 mph - -  
8:42 PM 91.4 °F 89.4 °F 55.4 °F 29% 29.66 in 10.0 mi South 9.2 mph - N/A   Clear
9:47 PM 89.6 °F 88.1 °F 57.2 °F 33% 29.71 in 10.0 mi South 6.9 mph - N/A   Clear
10:40 PM 87.8 °F 87.1 °F 59.0 °F 38% 29.74 in 10.0 mi South 6.9 mph - N/A   Clear
11:42 PM 84.2 °F 85.0 °F 62.6 °F 48% 29.70 in 10.0 mi South 4.6 mph - N/A   Clear